Location: Marcé
(47.5801°N, 0.3280°W)
Time: 03:43:36
(UTC+01:00)

Vanguard 3 - Pass Details

Date: 30 November 2021
Orbit: 508 x 3260 km, 33.3° (Epoch: 19 January)

Event Time Altitude Azimuth Distance (km) Brightness Sun altitude
Exits shadow 03:45:54 13° 184° (S) 5,909 11.3 -46.3°
Maximum altitude 03:57:19 24° 145° (SE) 4,937 11.1 -44.5°
Drops below altitude 10° 04:09:03 10° 101° (ESE) 5,376 11.8 -42.6°
Sets 04:13:51 0° 89° (E) 6,002 12.4 -41.9°
